Telluride, CO

12:59 AM MDT on October 17, 2017 (GMT -0600)
Telluride Regional

Weather History for KTEX - May, 2014

Change the Weather History Date:

Sunday, May 11, 2014

  Actual Average Record
Temperature  
Mean Temperature 35 °F -  
Max Temperature 42 °F 55 °F 69 °F (2007)
Min Temperature 28 °F 35 °F 21 °F (2003)
Degree Days  
Heating Degree Days 30    
Moisture  
Dew Point 32 °F    
Average Humidity 91    
Maximum Humidity 100    
Minimum Humidity 61    
Precipitation  
Precipitation 0.29 in - - ()
Sea Level Pressure  
Sea Level Pressure 29.76 in    
Wind  
Wind Speed 3 mph (SSE)    
Max Wind Speed 22 mph    
Max Gust Speed 39 mph    
Visibility 5 miles    
Events Fog , Rain , Snow , Thunderstorm    
Averages and records for this station are not official NWS values.
T = Trace of Precipitation, MM = Missing Value Source: NWS Daily Summary

Daily Weather History Graph

Daily Weather History Graph

Search for Another Location

Airport or City:

Trip Planner

Search our weather history database for the weather conditions in past years. The results will help you decide how hot, cold, wet, or windy it might be!

Date:

Astronomy

May. 11, 2014 Rise Set
Actual Time 6:04 AM MDT 8:11 PM MDT
Civil Twilight 5:35 AM MDT 8:40 PM MDT
Nautical Twilight 5:00 AM MDT 9:16 PM MDT
Astronomical Twilight 4:21 AM MDT 9:55 PM MDT
Moon 5:13 PM MDT (5/11) 4:08 AM MDT (5/11)
Length of Visible Light 15h 05m
Length of Day
14h 06m
Waxing Gibbous, 89% of the Moon is Illuminated
May 11
Waxing Gibbous
May 14
Full
May 21
Last Quarter
May 28
New
Jun 5
First Quarter

Hourly Weather History & Observations

Time (MDT) Temp. Windchill Dew Point Humidity Pressure Visibility Wind Dir Wind Speed Gust Speed Precip Events Conditions
12:19 AM 42.8 °F - 37.4 °F 81% 29.80 in 5.0 mi Calm Calm - 0.01 in Rain Light Rain
12:57 AM 41.0 °F - 37.4 °F 87% 29.80 in 7.0 mi Calm Calm - N/A Rain Light Rain
1:17 AM 41.0 °F 39.0 °F 37.4 °F 87% 29.80 in 7.0 mi West 3.5 mph - 0.01 in Rain Light Rain
1:37 AM 41.0 °F 38.0 °F 37.4 °F 87% 29.80 in 5.0 mi WNW 4.6 mph - 0.02 in Rain Light Rain
1:57 AM 39.2 °F 35.0 °F 35.6 °F 87% 29.79 in 7.0 mi West 5.8 mph - N/A Rain Rain
2:17 AM 39.2 °F 37.0 °F 35.6 °F 87% 29.79 in 5.0 mi SSW 3.5 mph - 0.01 in Rain Light Rain
2:37 AM 39.2 °F - 37.4 °F 93% 29.78 in 5.0 mi Calm Calm - 0.02 in Rain Light Rain
2:57 AM 39.2 °F 37.0 °F 35.6 °F 87% 29.77 in 5.0 mi WSW 3.5 mph - N/A Rain Light Rain
3:17 AM 37.4 °F 33.8 °F 35.6 °F 93% 29.76 in 4.0 mi NW 4.6 mph - 0.02 in Rain Rain
3:37 AM 37.4 °F - 35.6 °F 93% 29.76 in 4.0 mi Calm Calm - 0.04 in Rain Rain
3:58 AM 37.4 °F - 37.4 °F 100% 29.76 in 4.0 mi Calm Calm - N/A Rain Rain
4:17 AM 35.6 °F - 35.6 °F 100% 29.76 in 4.0 mi Calm Calm - 0.02 in Rain Rain
4:38 AM 35.6 °F - 35.6 °F 100% 29.74 in 3.0 mi Calm Calm - 0.04 in Snow Light Snow
4:57 AM 35.6 °F - 35.6 °F 100% 29.74 in 2.5 mi Calm Calm - N/A Snow Light Snow
5:17 AM 35.6 °F - 35.6 °F 100% 29.73 in 3.0 mi Calm Calm - N/A Snow Light Snow
5:37 AM 33.8 °F - 33.8 °F 100% 29.72 in 1.0 mi Calm Calm - N/A Snow Snow
5:59 AM 33.8 °F 30.8 °F 33.8 °F 100% 29.72 in 2.5 mi East 3.5 mph - N/A Snow Light Snow
6:17 AM 33.8 °F 29.6 °F 33.8 °F 100% 29.71 in 5.0 mi ENE 4.6 mph - N/A Snow Light Snow
7:17 AM 33.8 °F 25.3 °F 33.8 °F 100% 29.71 in 0.5 mi WSW 11.5 mph 29.9 mph N/A Snow Heavy Snow
7:37 AM 33.8 °F - 33.8 °F 100% 29.72 in 0.2 mi Calm Calm - N/A Snow Snow
7:57 AM 33.8 °F 26.4 °F 33.8 °F 100% 29.74 in 0.2 mi SW 9.2 mph 27.6 mph N/A Snow Snow
8:17 AM 33.8 °F 27.0 °F 33.8 °F 100% 29.74 in 0.2 mi East 8.1 mph - N/A Snow Light Snow
8:37 AM 33.8 °F 27.7 °F 33.8 °F 100% 29.71 in 0.5 mi East 6.9 mph 20.7 mph N/A Snow Snow
8:58 AM 33.8 °F 26.4 °F 32.0 °F 93% 29.71 in 7.0 mi ESE 9.2 mph - N/A   Overcast
9:17 AM 33.8 °F 28.6 °F 33.8 °F 100% 29.71 in 0.2 mi ENE 5.8 mph - N/A Snow , Thunderstorm Snow
9:59 AM 35.6 °F - 33.8 °F 93% 29.68 in 10.0 mi Calm Calm - N/A   Overcast
10:17 AM 35.6 °F - 35.6 °F 100% 29.68 in 10.0 mi Calm Calm - 0.01 in   Overcast
10:37 AM 37.4 °F 32.1 °F 32.0 °F 81% 29.68 in 10.0 mi ENE 6.9 mph - 0.16 in   Overcast
10:57 AM 41.0 °F 37.1 °F 30.2 °F 65% 29.67 in 10.0 mi East 5.8 mph - N/A   Mostly Cloudy
11:17 AM 39.2 °F 35.0 °F 30.2 °F 70% 29.68 in 10.0 mi South 5.8 mph - N/A   Mostly Cloudy
11:37 AM 35.6 °F 31.7 °F 32.0 °F 87% 29.71 in 0.5 mi SE 4.6 mph 26.5 mph N/A Snow Snow
11:57 AM 33.8 °F 26.4 °F 30.2 °F 87% 29.72 in 0.8 mi ESE 9.2 mph 20.7 mph N/A Snow Light Snow
12:17 PM 35.6 °F 31.7 °F 30.2 °F 81% 29.72 in 10.0 mi SE 4.6 mph - N/A   Overcast
12:37 PM 35.6 °F 30.7 °F 30.2 °F 81% 29.72 in 3.0 mi SSE 5.8 mph 16.1 mph N/A Snow Light Snow
12:57 PM 37.4 °F 33.8 °F 30.2 °F 75% 29.72 in 2.0 mi NE 4.6 mph - N/A Snow Light Snow
1:17 PM 33.8 °F 27.0 °F 32.0 °F 93% 29.73 in 0.5 mi SSE 8.1 mph - N/A Snow , Thunderstorm Light Thunderstorms and Snow
1:39 PM 35.6 °F 31.7 °F 33.8 °F 93% 29.72 in 2.0 mi NNE 4.6 mph - 0.01 in Snow Light Snow
1:57 PM 37.4 °F - 33.8 °F 87% 29.72 in 10.0 mi Calm Calm - N/A   Mostly Cloudy
2:17 PM 35.6 °F 24.8 °F 28.4 °F 75% 29.72 in 2.5 mi ESE 19.6 mph 28.8 mph N/A Snow Light Snow
2:37 PM 35.6 °F 24.2 °F 26.6 °F 70% 29.74 in 1.8 mi SSE 21.9 mph 39.1 mph N/A Snow , Thunderstorm Light Thunderstorms and Snow
3:39 PM 39.2 °F 35.0 °F 26.6 °F 61% 29.73 in 10.0 mi South 5.8 mph - N/A   Mostly Cloudy
3:57 PM 32.0 °F 26.4 °F 30.2 °F 93% 29.74 in 1.5 mi NW 5.8 mph 20.7 mph N/A Snow Light Snow
4:19 PM 37.4 °F - 33.8 °F 87% 29.75 in 10.0 mi Calm Calm - N/A   Scattered Clouds
4:37 PM 35.6 °F 31.7 °F 30.2 °F 81% 29.76 in 10.0 mi West 4.6 mph - N/A   Mostly Cloudy
4:57 PM 35.6 °F - 28.4 °F 75% 29.78 in 5.0 mi Calm Calm - N/A Snow Light Snow
5:37 PM 30.2 °F 21.3 °F 28.4 °F 93% 29.80 in 0.8 mi West 10.4 mph 16.1 mph N/A Snow Snow
5:57 PM 30.2 °F 21.9 °F 30.2 °F 100% 29.80 in 0.5 mi WSW 9.2 mph - N/A Snow Light Snow
6:37 PM 30.2 °F - 30.2 °F 100% 29.82 in 0.5 mi Calm Calm - N/A Snow , Thunderstorm Light Thunderstorms and Snow
6:57 PM 30.2 °F - 30.2 °F 100% 29.82 in 2.0 mi Calm Calm - N/A Snow Light Snow
7:37 PM 30.2 °F - 30.2 °F 100% 29.83 in 1.0 mi Calm Calm - N/A Snow Light Snow
7:57 PM 30.2 °F - 30.2 °F 100% 29.84 in 5.0 mi Calm Calm - N/A Snow Light Snow
8:17 PM 30.2 °F - 28.4 °F 93% 29.84 in 7.0 mi Calm Calm - N/A Snow Light Snow
8:57 PM 30.2 °F - 28.4 °F 93% 29.86 in 10.0 mi Calm Calm - N/A   Overcast
9:17 PM 30.2 °F - 28.4 °F 93% 29.87 in 10.0 mi Calm Calm - N/A   Overcast
9:37 PM 30.2 °F - 28.4 °F 93% 29.88 in 10.0 mi Calm Calm - N/A   Overcast
9:57 PM 30.2 °F - 28.4 °F 93% 29.89 in 10.0 mi Calm Calm - N/A   Mostly Cloudy
11:17 PM 28.4 °F 23.3 °F 28.4 °F 100% 29.91 in 0.5 mi WSW 4.6 mph - N/A Fog Light Freezing Fog
11:58 PM 28.4 °F 24.6 °F 28.4 °F 100% 29.93 in 2.5 mi SSW 3.5 mph - N/A   Overcast